Orbital Elements at Epoch 2459200.5 (2020-Dec-17.0) TDB
Reference: JPL 16 (heliocentric ecliptic J2000)
Element | Value | Uncertainty (1-sigma) | Units |
e | .1624221938182596 | 3.731e-08 | |
a | 2.447566699291735 | 1.0972e-08 | au |
q | 2.050027546476255 | 9.2188e-08 | au |
i | 3.279748471547377 | 4.7963e-06 | deg |
node | 207.5518529779605 | 8.7003e-05 | deg |
peri | 204.0718284624459 | 8.8718e-05 | deg |
M | 66.83345870928815 | 1.9058e-05 | deg |
tp | 2458940.848003305512 (2020-Apr-01.34800331) | 7.3339e-05 | TDB |
period | 1398.621597852827 3.83 | 9.4046e-06 2.575e-08 | d yr |
n | .2573962825632568 | 1.7308e-09 | deg/d |
Q | 2.845105852107215 | 1.2754e-08 | au |
|
| | Orbit Determination Parameters
Additional Information
|